This is the latest recevied weather packets stored in our database for station/object KW4UJ. If no packets are shown the sender has not sent any weather packets the latest 10 day(s).
| Time | Temp. | Humidity | Pressure | Rain* | Wind** | Luminosity | Snow |
|---|---|---|---|---|---|---|---|
| 1777044480 | 24.44° C | 52% | 1009.4 hPa | 0 mm | - | 209 W/m² | - |
| 1777044176 | 23.89° C | 53% | 1009.3 hPa | 0 mm | - | 208 W/m² | - |
| 1777043873 | 23.89° C | 53% | 1009.2 hPa | 0 mm | - | 212 W/m² | - |
| 1777043569 | 23.89° C | 52% | 1009.4 hPa | 0 mm | - | 187 W/m² | - |
| 1777043265 | 23.89° C | 51% | 1009.5 hPa | 0 mm | - | 188 W/m² | - |
| 1777042961 | 23.89° C | 53% | 1009.4 hPa | 0 mm | - | 225 W/m² | - |
| 1777042658 | 23.89° C | 52% | 1009.4 hPa | 0 mm | - | 196 W/m² | - |
| 1777042352 | 24.44° C | 51% | 1009.5 hPa | 0 mm | - | 138 W/m² | - |
| 1777042048 | 25° C | 50% | 1009.7 hPa | 0 mm | - | 386 W/m² | - |
| 1777041745 | 23.89° C | 52% | 1009.8 hPa | 0 mm | - | 565 W/m² | - |
| 1777041441 | 23.33° C | 54% | 1009.7 hPa | 0 mm | - | 147 W/m² | - |
| 1777041138 | 23.89° C | 54% | 1009.6 hPa | 0 mm | - | 72 W/m² | - |
| 1777040835 | 24.44° C | 52% | 1009.5 hPa | 0 mm | - | 55 W/m² | - |
| 1777040529 | 23.89° C | 52% | 1009.6 hPa | 0 mm | - | 268 W/m² | - |
| 1777040225 | 24.44° C | 50% | 1009.6 hPa | 0 mm | - | 145 W/m² | - |
| 1777039919 | 24.44° C | 51% | 1009.6 hPa | 0 mm | - | 155 W/m² | - |
| 1777039616 | 25° C | 50% | 1009.4 hPa | 0 mm | - | 181 W/m² | - |
| 1777039311 | 25° C | 51% | 1009.7 hPa | 0 mm | - | 219 W/m² | - |
| 1777039011 | 24.44° C | 51% | 1009.5 hPa | 0 mm | - | 198 W/m² | - |
| 1777038707 | 25° C | 52% | 1009.7 hPa | 0 mm | - | 338 W/m² | - |
| 1777038402 | 24.44° C | 52% | 1009.9 hPa | 0 mm | - | 411 W/m² | - |
| 1777038098 | 24.44° C | 53% | 1009.7 hPa | 0 mm | - | 217 W/m² | - |
| 1777037793 | 24.44° C | 53% | 1009.8 hPa | 0 mm | - | 170 W/m² | - |
| 1777037489 | 24.44° C | 54% | 1009.7 hPa | 0 mm | - | 354 W/m² | - |
| 1777037186 | 24.44° C | 54% | 1009.8 hPa | 0 mm | - | 292 W/m² | - |
* Rain latest hour (hover to see other rain measurements)
** Current wind speed in m/s (hover to see current wind gust speed)